owner,sensor,date,latitude,longitude,vertical_datum,sea_water_practical_salinity,qcFlag 
SCCF RECON,ioos:station:SCCF:12:1,2011-09-01T00:00:00Z,26.4966,-82.1479,2.15,29.45,1111122 
SCCF RECON,ioos:station:SCCF:12:1,2011-09-01T01:00:00Z,26.4966,-82.1479,2.09,29.23,1111122 
SCCF RECON,ioos:station:SCCF:12:1,2011-09-01T02:00:00Z,26.4966,-82.1479,2.02,29.07,1111122 
SCCF RECON,ioos:station:SCCF:12:1,2011-09-01T03:00:00Z,26.4966,-82.1479,2.04,29.23,1111122 
SCCF RECON,ioos:station:SCCF:12:1,2011-09-01T04:00:00Z,26.4966,-82.1479,2.172,29.21,1111122 
SCCF RECON,ioos:station:SCCF:12:1,2011-09-01T05:00:00Z,26.4966,-82.1479,2.39,29.38,1111122 
SCCF RECON,ioos:station:SCCF:12:1,2011-09-01T06:00:00Z,26.4966,-82.1479,2.51,29.28,1111122 
SCCF RECON,ioos:station:SCCF:12:1,2011-09-01T07:00:00Z,26.4966,-82.1479,2.574,29.31,1111122 
SCCF RECON,ioos:station:SCCF:12:1,2011-09-01T08:00:00Z,26.4966,-82.1479,2.57,29.36,1111122 
SCCF RECON,ioos:station:SCCF:12:1,2011-09-01T09:00:00Z,26.4966,-82.1479,2.49,29.16,1111122 
SCCF RECON,ioos:station:SCCF:12:1,2011-09-01T10:00:00Z,26.4966,-82.1479,2.38,29.03,1111122 
SCCF RECON,ioos:station:SCCF:12:1,2011-09-01T11:00:00Z,26.4966,-82.1479,2.25,29.0,1111122 
SCCF RECON,ioos:station:SCCF:12:1,2011-09-01T12:00:00Z,26.4966,-82.1479,2.11,29.01,1111122 
SCCF RECON,ioos:station:SCCF:12:1,2011-09-01T13:00:00Z,26.4966,-82.1479,1.991,29.08,1111122 
SCCF RECON,ioos:station:SCCF:12:1,2011-09-01T14:00:00Z,26.4966,-82.1479,1.904,29.05,1111122 
SCCF RECON,ioos:station:SCCF:12:1,2011-09-01T15:00:00Z,26.4966,-82.1479,1.857,29.05,1111122 
SCCF RECON,ioos:station:SCCF:12:1,2011-09-01T16:00:00Z,26.4966,-82.1479,1.9,29.18,1111122 
SCCF RECON,ioos:station:SCCF:12:1,2011-09-01T17:00:00Z,26.4966,-82.1479,2.056,29.29,1111122 
SCCF RECON,ioos:station:SCCF:12:1,2011-09-01T18:00:00Z,26.4966,-82.1479,2.21,29.67,1111122 
SCCF RECON,ioos:station:SCCF:12:1,2011-09-01T19:00:00Z,26.4966,-82.1479,2.32,29.87,1111122 
SCCF RECON,ioos:station:SCCF:12:1,2011-09-01T20:00:00Z,26.4966,-82.1479,2.39,29.77,1111122 
SCCF RECON,ioos:station:SCCF:12:1,2011-09-01T21:00:00Z,26.4966,-82.1479,2.43,29.38,1111122 
SCCF RECON,ioos:station:SCCF:12:1,2011-09-01T22:00:00Z,26.4966,-82.1479,2.4,29.35,1111122 
SCCF RECON,ioos:station:SCCF:12:1,2011-09-01T23:00:00Z,26.4966,-82.1479,2.35,29.04,1111122 
SCCF RECON,ioos:station:SCCF:12:1,2011-09-02T00:00:00Z,26.4966,-82.1479,2.251,28.92,1111122 
SCCF RECON,ioos:station:SCCF:12:1,2011-09-02T01:00:00Z,26.4966,-82.1479,2.16,28.7,1111122 
SCCF RECON,ioos:station:SCCF:12:1,2011-09-02T02:00:00Z,26.4966,-82.1479,2.1,28.6,1111122 
SCCF RECON,ioos:station:SCCF:12:1,2011-09-02T03:00:00Z,26.4966,-82.1479,2.1,28.69,1111122 
SCCF RECON,ioos:station:SCCF:12:1,2011-09-02T04:00:00Z,26.4966,-82.1479,2.15,28.81,1111122 
SCCF RECON,ioos:station:SCCF:12:1,2011-09-02T05:00:00Z,26.4966,-82.1479,2.27,28.92,1111122 
SCCF RECON,ioos:station:SCCF:12:1,2011-09-02T06:00:00Z,26.4966,-82.1479,2.424,28.92,1111122 
SCCF RECON,ioos:station:SCCF:12:1,2011-09-02T07:00:00Z,26.4966,-82.1479,2.54,28.87,1111122 
SCCF RECON,ioos:station:SCCF:12:1,2011-09-02T08:00:00Z,26.4966,-82.1479,2.59,28.91,1111122 
SCCF RECON,ioos:station:SCCF:12:1,2011-09-02T09:00:00Z,26.4966,-82.1479,2.56,28.92,1111122 
SCCF RECON,ioos:station:SCCF:12:1,2011-09-02T10:00:00Z,26.4966,-82.1479,2.49,28.68,1111122 
SCCF RECON,ioos:station:SCCF:12:1,2011-09-02T11:00:00Z,26.4966,-82.1479,2.389,28.7,1111122 
SCCF RECON,ioos:station:SCCF:12:1,2011-09-02T12:00:00Z,26.4966,-82.1479,2.24,28.86,1111122 
SCCF RECON,ioos:station:SCCF:12:1,2011-09-02T13:00:00Z,26.4966,-82.1479,2.111,28.6,1111122 
SCCF RECON,ioos:station:SCCF:12:1,2011-09-02T14:00:00Z,26.4966,-82.1479,1.999,28.54,1111122 
SCCF RECON,ioos:station:SCCF:12:1,2011-09-02T15:00:00Z,26.4966,-82.1479,1.903,28.55,1111122 
SCCF RECON,ioos:station:SCCF:12:1,2011-09-02T16:00:00Z,26.4966,-82.1479,1.853,28.76,1111122 
SCCF RECON,ioos:station:SCCF:12:1,2011-09-02T17:00:00Z,26.4966,-82.1479,1.924,28.95,1111122 
SCCF RECON,ioos:station:SCCF:12:1,2011-09-02T18:00:00Z,26.4966,-82.1479,2.088,28.97,1111122 
SCCF RECON,ioos:station:SCCF:12:1,2011-09-02T19:00:00Z,26.4966,-82.1479,2.213,29.28,1111122 
SCCF RECON,ioos:station:SCCF:12:1,2011-09-02T20:00:00Z,26.4966,-82.1479,2.3,29.29,1111122 
SCCF RECON,ioos:station:SCCF:12:1,2011-09-02T21:00:00Z,26.4966,-82.1479,2.358,29.27,1111122 
SCCF RECON,ioos:station:SCCF:12:1,2011-09-02T22:00:00Z,26.4966,-82.1479,2.4,28.8,1111122 
SCCF RECON,ioos:station:SCCF:12:1,2011-09-02T23:00:00Z,26.4966,-82.1479,2.369,28.96,1111122 
SCCF RECON,ioos:station:SCCF:12:1,2011-09-03T00:00:00Z,26.4966,-82.1479,2.34,28.66,1111122 
SCCF RECON,ioos:station:SCCF:12:1,2011-09-03T01:00:00Z,26.4966,-82.1479,2.29,28.38,1111122 
SCCF RECON,ioos:station:SCCF:12:1,2011-09-03T02:00:00Z,26.4966,-82.1479,2.28,28.16,1111122 
SCCF RECON,ioos:station:SCCF:12:1,2011-09-03T03:00:00Z,26.4966,-82.1479,2.27,28.22,1111122 
SCCF RECON,ioos:station:SCCF:12:1,2011-09-03T04:00:00Z,26.4966,-82.1479,2.269,27.93,1111122 
SCCF RECON,ioos:station:SCCF:12:1,2011-09-03T05:00:00Z,26.4966,-82.1479,2.337,27.91,1111122 
SCCF RECON,ioos:station:SCCF:12:1,2011-09-03T06:00:00Z,26.4966,-82.1479,2.45,28.16,1111122 
SCCF RECON,ioos:station:SCCF:12:1,2011-09-03T07:00:00Z,26.4966,-82.1479,2.53,28.31,1111122 
SCCF RECON,ioos:station:SCCF:12:1,2011-09-03T08:00:00Z,26.4966,-82.1479,2.576,28.42,1111122 
SCCF RECON,ioos:station:SCCF:12:1,2011-09-03T09:00:00Z,26.4966,-82.1479,2.56,28.26,1111122 
SCCF RECON,ioos:station:SCCF:12:1,2011-09-03T10:00:00Z,26.4966,-82.1479,2.5,28.01,1111122 
SCCF RECON,ioos:station:SCCF:12:1,2011-09-03T11:00:00Z,26.4966,-82.1479,2.449,27.84,1111122 
SCCF RECON,ioos:station:SCCF:12:1,2011-09-03T12:00:00Z,26.4966,-82.1479,2.35,27.67,1111122 
SCCF RECON,ioos:station:SCCF:12:1,2011-09-03T13:00:00Z,26.4966,-82.1479,2.241,27.72,1111122 
SCCF RECON,ioos:station:SCCF:12:1,2011-09-03T14:00:00Z,26.4966,-82.1479,2.127,27.74,1111122 
SCCF RECON,ioos:station:SCCF:12:1,2011-09-03T15:00:00Z,26.4966,-82.1479,2.005,27.77,1111122 
SCCF RECON,ioos:station:SCCF:12:1,2011-09-03T16:00:00Z,26.4966,-82.1479,1.899,27.73,1111122 
SCCF RECON,ioos:station:SCCF:12:1,2011-09-03T17:00:00Z,26.4966,-82.1479,1.842,27.77,1111122 
SCCF RECON,ioos:station:SCCF:12:1,2011-09-03T18:00:00Z,26.4966,-82.1479,1.891,27.93,1111122 
SCCF RECON,ioos:station:SCCF:12:1,2011-09-03T19:00:00Z,26.4966,-82.1479,2.02,28.01,1111122 
SCCF RECON,ioos:station:SCCF:12:1,2011-09-03T20:00:00Z,26.4966,-82.1479,2.121,27.94,1111122 
SCCF RECON,ioos:station:SCCF:12:1,2011-09-03T21:00:00Z,26.4966,-82.1479,2.21,27.8,1111122 
SCCF RECON,ioos:station:SCCF:12:1,2011-09-03T22:00:00Z,26.4966,-82.1479,2.27,27.77,1111122 
SCCF RECON,ioos:station:SCCF:12:1,2011-09-03T23:00:00Z,26.4966,-82.1479,2.29,27.81,1111122 
SCCF RECON,ioos:station:SCCF:12:1,2011-09-04T00:00:00Z,26.4966,-82.1479,2.294,27.85,1111122 
SCCF RECON,ioos:station:SCCF:12:1,2011-09-04T01:00:00Z,26.4966,-82.1479,2.279,27.88,1111122 
SCCF RECON,ioos:station:SCCF:12:1,2011-09-04T02:00:00Z,26.4966,-82.1479,2.27,27.97,1111122 
SCCF RECON,ioos:station:SCCF:12:1,2011-09-04T03:00:00Z,26.4966,-82.1479,2.263,28.16,1111122 
SCCF RECON,ioos:station:SCCF:12:1,2011-09-04T04:00:00Z,26.4966,-82.1479,2.26,27.86,1111122 
SCCF RECON,ioos:station:SCCF:12:1,2011-09-04T05:00:00Z,26.4966,-82.1479,2.29,27.87,1111122 
SCCF RECON,ioos:station:SCCF:12:1,2011-09-04T06:00:00Z,26.4966,-82.1479,2.359,27.87,1111122 
SCCF RECON,ioos:station:SCCF:12:1,2011-09-04T07:00:00Z,26.4966,-82.1479,2.442,27.89,1111122 
SCCF RECON,ioos:station:SCCF:12:1,2011-09-04T08:00:00Z,26.4966,-82.1479,2.511,27.93,1111122 
SCCF RECON,ioos:station:SCCF:12:1,2011-09-04T09:00:00Z,26.4966,-82.1479,2.576,27.86,1111122 
SCCF RECON,ioos:station:SCCF:12:1,2011-09-04T10:00:00Z,26.4966,-82.1479,2.59,27.9,1111122 
SCCF RECON,ioos:station:SCCF:12:1,2011-09-04T11:00:00Z,26.4966,-82.1479,2.57,27.9,1111122 
SCCF RECON,ioos:station:SCCF:12:1,2011-09-04T12:00:00Z,26.4966,-82.1479,2.52,27.78,1111122 
SCCF RECON,ioos:station:SCCF:12:1,2011-09-04T13:00:00Z,26.4966,-82.1479,2.441,27.66,1111122 
SCCF RECON,ioos:station:SCCF:12:1,2011-09-04T14:00:00Z,26.4966,-82.1479,2.32,28.01,1111122 
SCCF RECON,ioos:station:SCCF:12:1,2011-09-04T15:00:00Z,26.4966,-82.1479,2.205,27.79,1111122 
SCCF RECON,ioos:station:SCCF:12:1,2011-09-04T16:00:00Z,26.4966,-82.1479,2.088,27.75,1111122 
SCCF RECON,ioos:station:SCCF:12:1,2011-09-04T17:00:00Z,26.4966,-82.1479,1.995,27.91,1111122 
SCCF RECON,ioos:station:SCCF:12:1,2011-09-04T18:00:00Z,26.4966,-82.1479,1.945,27.8,1111122 
SCCF RECON,ioos:station:SCCF:12:1,2011-09-04T19:00:00Z,26.4966,-82.1479,1.981,27.79,1111122 
SCCF RECON,ioos:station:SCCF:12:1,2011-09-04T20:00:00Z,26.4966,-82.1479,2.09,27.79,1111122 
SCCF RECON,ioos:station:SCCF:12:1,2011-09-04T21:00:00Z,26.4966,-82.1479,2.18,27.85,1111122 
SCCF RECON,ioos:station:SCCF:12:1,2011-09-04T22:00:00Z,26.4966,-82.1479,2.24,27.76,1111122 
SCCF RECON,ioos:station:SCCF:12:1,2011-09-04T23:00:00Z,26.4966,-82.1479,2.28,28.32,1111122 
SCCF RECON,ioos:station:SCCF:12:1,2011-09-05T00:00:00Z,26.4966,-82.1479,2.311,28.54,1111122 
SCCF RECON,ioos:station:SCCF:12:1,2011-09-05T01:00:00Z,26.4966,-82.1479,2.33,28.56,1111122 
SCCF RECON,ioos:station:SCCF:12:1,2011-09-05T02:00:00Z,26.4966,-82.1479,2.35,28.55,1111122 
SCCF RECON,ioos:station:SCCF:12:1,2011-09-05T03:00:00Z,26.4966,-82.1479,2.33,28.7,1111122 
SCCF RECON,ioos:station:SCCF:12:1,2011-09-05T04:00:00Z,26.4966,-82.1479,2.34,28.78,1111122 
SCCF RECON,ioos:station:SCCF:12:1,2011-09-05T05:00:00Z,26.4966,-82.1479,2.369,28.93,1111122 
SCCF RECON,ioos:station:SCCF:12:1,2011-09-05T06:00:00Z,26.4966,-82.1479,2.37,29.05,1111122 
SCCF RECON,ioos:station:SCCF:12:1,2011-09-05T07:00:00Z,26.4966,-82.1479,2.36,29.13,1111122 
SCCF RECON,ioos:station:SCCF:12:1,2011-09-05T08:00:00Z,26.4966,-82.1479,2.418,29.16,1111122 
SCCF RECON,ioos:station:SCCF:12:1,2011-09-05T09:00:00Z,26.4966,-82.1479,2.51,29.26,1111122 
SCCF RECON,ioos:station:SCCF:12:1,2011-09-05T10:00:00Z,26.4966,-82.1479,2.572,29.49,1111122 
SCCF RECON,ioos:station:SCCF:12:1,2011-09-05T11:00:00Z,26.4966,-82.1479,2.59,29.5,1111122 
SCCF RECON,ioos:station:SCCF:12:1,2011-09-05T12:00:00Z,26.4966,-82.1479,2.579,29.58,1111122 
SCCF RECON,ioos:station:SCCF:12:1,2011-09-05T13:00:00Z,26.4966,-82.1479,2.55,29.95,1111122 
SCCF RECON,ioos:station:SCCF:12:1,2011-09-05T14:00:00Z,26.4966,-82.1479,2.47,29.93,1111122 
SCCF RECON,ioos:station:SCCF:12:1,2011-09-05T15:00:00Z,26.4966,-82.1479,2.376,30.17,1111122 
SCCF RECON,ioos:station:SCCF:12:1,2011-09-05T16:00:00Z,26.4966,-82.1479,2.262,30.23,1111122 
SCCF RECON,ioos:station:SCCF:12:1,2011-09-05T17:00:00Z,26.4966,-82.1479,2.146,30.46,1111122 
SCCF RECON,ioos:station:SCCF:12:1,2011-09-05T18:00:00Z,26.4966,-82.1479,2.043,30.43,1111122 
SCCF RECON,ioos:station:SCCF:12:1,2011-09-05T19:00:00Z,26.4966,-82.1479,1.98,30.42,1111122 
SCCF RECON,ioos:station:SCCF:12:1,2011-09-05T20:00:00Z,26.4966,-82.1479,1.988,30.38,1111122 
SCCF RECON,ioos:station:SCCF:12:1,2011-09-05T21:00:00Z,26.4966,-82.1479,2.069,30.4,1111122 
SCCF RECON,ioos:station:SCCF:12:1,2011-09-05T22:00:00Z,26.4966,-82.1479,2.147,30.56,1111122 
SCCF RECON,ioos:station:SCCF:12:1,2011-09-05T23:00:00Z,26.4966,-82.1479,2.22,30.71,1111122 
SCCF RECON,ioos:station:SCCF:12:1,2011-09-06T00:00:00Z,26.4966,-82.1479,2.3,31.4,1111122 
SCCF RECON,ioos:station:SCCF:12:1,2011-09-06T01:00:00Z,26.4966,-82.1479,2.363,31.46,1111122 
SCCF RECON,ioos:station:SCCF:12:1,2011-09-06T02:00:00Z,26.4966,-82.1479,2.396,31.46,1111122 
SCCF RECON,ioos:station:SCCF:12:1,2011-09-06T03:00:00Z,26.4966,-82.1479,2.42,31.26,1111122 
SCCF RECON,ioos:station:SCCF:12:1,2011-09-06T04:00:00Z,26.4966,-82.1479,2.43,31.23,1111122 
SCCF RECON,ioos:station:SCCF:12:1,2011-09-06T05:00:00Z,26.4966,-82.1479,2.4,31.6,1111122 
SCCF RECON,ioos:station:SCCF:12:1,2011-09-06T06:00:00Z,26.4966,-82.1479,2.38,31.92,1111122 
SCCF RECON,ioos:station:SCCF:12:1,2011-09-06T07:00:00Z,26.4966,-82.1479,2.383,32.14,1111122 
SCCF RECON,ioos:station:SCCF:12:1,2011-09-06T08:00:00Z,26.4966,-82.1479,2.403,32.19,1111122 
SCCF RECON,ioos:station:SCCF:12:1,2011-09-06T09:00:00Z,26.4966,-82.1479,2.489,32.29,1111122 
SCCF RECON,ioos:station:SCCF:12:1,2011-09-06T10:00:00Z,26.4966,-82.1479,2.58,32.48,1111122 
SCCF RECON,ioos:station:SCCF:12:1,2011-09-06T11:00:00Z,26.4966,-82.1479,2.65,32.43,1111122 
SCCF RECON,ioos:station:SCCF:12:1,2011-09-06T12:00:00Z,26.4966,-82.1479,2.68,32.43,1111122 
SCCF RECON,ioos:station:SCCF:12:1,2011-09-06T13:00:00Z,26.4966,-82.1479,2.649,32.5,1111122 
SCCF RECON,ioos:station:SCCF:12:1,2011-09-06T14:00:00Z,26.4966,-82.1479,2.66,32.68,1111122 
SCCF RECON,ioos:station:SCCF:12:1,2011-09-06T15:00:00Z,26.4966,-82.1479,2.579,32.84,1111122 
SCCF RECON,ioos:station:SCCF:12:1,2011-09-06T16:00:00Z,26.4966,-82.1479,2.486,32.83,1111122 
SCCF RECON,ioos:station:SCCF:12:1,2011-09-06T17:00:00Z,26.4966,-82.1479,2.413,32.91,1111122 
SCCF RECON,ioos:station:SCCF:12:1,2011-09-06T18:00:00Z,26.4966,-82.1479,2.279,32.81,1111122 
SCCF RECON,ioos:station:SCCF:12:1,2011-09-06T19:00:00Z,26.4966,-82.1479,2.193,32.68,1111122 
SCCF RECON,ioos:station:SCCF:12:1,2011-09-06T20:00:00Z,26.4966,-82.1479,2.072,32.46,1111122 
SCCF RECON,ioos:station:SCCF:12:1,2011-09-06T21:00:00Z,26.4966,-82.1479,2.017,32.36,1111122 
SCCF RECON,ioos:station:SCCF:12:1,2011-09-06T22:00:00Z,26.4966,-82.1479,1.99,32.54,1111122 
SCCF RECON,ioos:station:SCCF:12:1,2011-09-06T23:00:00Z,26.4966,-82.1479,2.03,32.35,1111122 
SCCF RECON,ioos:station:SCCF:12:1,2011-09-07T00:00:00Z,26.4966,-82.1479,2.11,32.16,1111122 
SCCF RECON,ioos:station:SCCF:12:1,2011-09-07T01:00:00Z,26.4966,-82.1479,2.205,32.21,1111122 
SCCF RECON,ioos:station:SCCF:12:1,2011-09-07T02:00:00Z,26.4966,-82.1479,2.28,32.21,1111122 
SCCF RECON,ioos:station:SCCF:12:1,2011-09-07T03:00:00Z,26.4966,-82.1479,2.35,32.24,1111122 
SCCF RECON,ioos:station:SCCF:12:1,2011-09-07T04:00:00Z,26.4966,-82.1479,2.39,32.67,1111122 
SCCF RECON,ioos:station:SCCF:12:1,2011-09-07T05:00:00Z,26.4966,-82.1479,2.39,32.77,1111122 
SCCF RECON,ioos:station:SCCF:12:1,2011-09-07T06:00:00Z,26.4966,-82.1479,2.32,32.78,1111122 
SCCF RECON,ioos:station:SCCF:12:1,2011-09-07T07:00:00Z,26.4966,-82.1479,2.28,32.87,1111122 
SCCF RECON,ioos:station:SCCF:12:1,2011-09-07T08:00:00Z,26.4966,-82.1479,2.29,32.68,1111122 
SCCF RECON,ioos:station:SCCF:12:1,2011-09-07T09:00:00Z,26.4966,-82.1479,2.37,32.79,1111122 
SCCF RECON,ioos:station:SCCF:12:1,2011-09-07T10:00:00Z,26.4966,-82.1479,2.41,32.88,1111122 
SCCF RECON,ioos:station:SCCF:12:1,2011-09-07T11:00:00Z,26.4966,-82.1479,2.46,33.11,1111122 
SCCF RECON,ioos:station:SCCF:12:1,2011-09-07T12:00:00Z,26.4966,-82.1479,2.552,32.84,1111122 
SCCF RECON,ioos:station:SCCF:12:1,2011-09-07T13:00:00Z,26.4966,-82.1479,2.58,32.89,1111122 
SCCF RECON,ioos:station:SCCF:12:1,2011-09-07T14:00:00Z,26.4966,-82.1479,2.542,33.02,1111122 
SCCF RECON,ioos:station:SCCF:12:1,2011-09-07T15:00:00Z,26.4966,-82.1479,2.462,33.04,1111122 
SCCF RECON,ioos:station:SCCF:12:1,2011-09-07T16:00:00Z,26.4966,-82.1479,2.4,33.01,1111122 
SCCF RECON,ioos:station:SCCF:12:1,2011-09-07T17:00:00Z,26.4966,-82.1479,2.32,32.98,1111122 
SCCF RECON,ioos:station:SCCF:12:1,2011-09-07T18:00:00Z,26.4966,-82.1479,2.19,32.59,1111122 
SCCF RECON,ioos:station:SCCF:12:1,2011-09-07T19:00:00Z,26.4966,-82.1479,2.079,32.44,1111122 
SCCF RECON,ioos:station:SCCF:12:1,2011-09-07T20:00:00Z,26.4966,-82.1479,1.97,32.46,1111122 
SCCF RECON,ioos:station:SCCF:12:1,2011-09-07T21:00:00Z,26.4966,-82.1479,1.912,32.5,1111122 
SCCF RECON,ioos:station:SCCF:12:1,2011-09-07T22:00:00Z,26.4966,-82.1479,1.89,32.7,1111122 
SCCF RECON,ioos:station:SCCF:12:1,2011-09-07T23:00:00Z,26.4966,-82.1479,1.93,32.69,1111122 
SCCF RECON,ioos:station:SCCF:12:1,2011-09-08T00:00:00Z,26.4966,-82.1479,2.054,32.61,1111122 
SCCF RECON,ioos:station:SCCF:12:1,2011-09-08T01:00:00Z,26.4966,-82.1479,2.18,32.56,1111122 
SCCF RECON,ioos:station:SCCF:12:1,2011-09-08T02:00:00Z,26.4966,-82.1479,2.28,32.59,1111122 
SCCF RECON,ioos:station:SCCF:12:1,2011-09-08T03:00:00Z,26.4966,-82.1479,2.338,32.63,1111122 
SCCF RECON,ioos:station:SCCF:12:1,2011-09-08T04:00:00Z,26.4966,-82.1479,2.37,32.65,1111122 
SCCF RECON,ioos:station:SCCF:12:1,2011-09-08T05:00:00Z,26.4966,-82.1479,2.37,32.59,1111122 
SCCF RECON,ioos:station:SCCF:12:1,2011-09-08T06:00:00Z,26.4966,-82.1479,2.3,32.52,1111122 
SCCF RECON,ioos:station:SCCF:12:1,2011-09-08T07:00:00Z,26.4966,-82.1479,2.23,32.17,1111122 
SCCF RECON,ioos:station:SCCF:12:1,2011-09-08T08:00:00Z,26.4966,-82.1479,2.16,32.2,1111122 
SCCF RECON,ioos:station:SCCF:12:1,2011-09-08T09:00:00Z,26.4966,-82.1479,2.14,32.19,1111122 
SCCF RECON,ioos:station:SCCF:12:1,2011-09-08T10:00:00Z,26.4966,-82.1479,2.16,32.24,1111122 
SCCF RECON,ioos:station:SCCF:12:1,2011-09-08T11:00:00Z,26.4966,-82.1479,2.24,32.26,1111122 
SCCF RECON,ioos:station:SCCF:12:1,2011-09-08T12:00:00Z,26.4966,-82.1479,2.34,32.22,1111122 
SCCF RECON,ioos:station:SCCF:12:1,2011-09-08T13:00:00Z,26.4966,-82.1479,2.425,32.33,1111122 
SCCF RECON,ioos:station:SCCF:12:1,2011-09-08T14:00:00Z,26.4966,-82.1479,2.49,32.37,1111122 
SCCF RECON,ioos:station:SCCF:12:1,2011-09-08T15:00:00Z,26.4966,-82.1479,2.525,32.35,1111122 
SCCF RECON,ioos:station:SCCF:12:1,2011-09-08T16:00:00Z,26.4966,-82.1479,2.5,32.31,1111122 
SCCF RECON,ioos:station:SCCF:12:1,2011-09-08T17:00:00Z,26.4966,-82.1479,2.419,32.28,1111122 
SCCF RECON,ioos:station:SCCF:12:1,2011-09-08T18:00:00Z,26.4966,-82.1479,2.304,31.69,1111122 
SCCF RECON,ioos:station:SCCF:12:1,2011-09-08T19:00:00Z,26.4966,-82.1479,2.163,31.84,1111122 
SCCF RECON,ioos:station:SCCF:12:1,2011-09-08T20:00:00Z,26.4966,-82.1479,2.062,31.77,1111122 
SCCF RECON,ioos:station:SCCF:12:1,2011-09-08T21:00:00Z,26.4966,-82.1479,1.967,31.81,1111122 
SCCF RECON,ioos:station:SCCF:12:1,2011-09-08T22:00:00Z,26.4966,-82.1479,1.894,32.29,1111122 
SCCF RECON,ioos:station:SCCF:12:1,2011-09-08T23:00:00Z,26.4966,-82.1479,1.883,32.27,1111122 
SCCF RECON,ioos:station:SCCF:12:1,2011-09-09T00:00:00Z,26.4966,-82.1479,1.98,32.14,1111122 
SCCF RECON,ioos:station:SCCF:12:1,2011-09-09T01:00:00Z,26.4966,-82.1479,2.11,32.12,1111122 
SCCF RECON,ioos:station:SCCF:12:1,2011-09-09T02:00:00Z,26.4966,-82.1479,2.2,32.15,1111122 
SCCF RECON,ioos:station:SCCF:12:1,2011-09-09T03:00:00Z,26.4966,-82.1479,2.26,32.16,1111122 
SCCF RECON,ioos:station:SCCF:12:1,2011-09-09T04:00:00Z,26.4966,-82.1479,2.321,32.12,1111122 
SCCF RECON,ioos:station:SCCF:12:1,2011-09-09T05:00:00Z,26.4966,-82.1479,2.35,32.19,1111122 
SCCF RECON,ioos:station:SCCF:12:1,2011-09-09T06:00:00Z,26.4966,-82.1479,2.31,32.23,1111122 
SCCF RECON,ioos:station:SCCF:12:1,2011-09-09T07:00:00Z,26.4966,-82.1479,2.219,32.09,1111122 
SCCF RECON,ioos:station:SCCF:12:1,2011-09-09T08:00:00Z,26.4966,-82.1479,2.11,32.11,1111122 
SCCF RECON,ioos:station:SCCF:12:1,2011-09-09T09:00:00Z,26.4966,-82.1479,2.03,31.36,1111122 
SCCF RECON,ioos:station:SCCF:12:1,2011-09-09T10:00:00Z,26.4966,-82.1479,1.99,31.68,1111122 
SCCF RECON,ioos:station:SCCF:12:1,2011-09-09T11:00:00Z,26.4966,-82.1479,2.02,31.94,1111122 
SCCF RECON,ioos:station:SCCF:12:1,2011-09-09T12:00:00Z,26.4966,-82.1479,2.14,31.99,1111122 
SCCF RECON,ioos:station:SCCF:12:1,2011-09-09T13:00:00Z,26.4966,-82.1479,2.28,31.91,1111122 
SCCF RECON,ioos:station:SCCF:12:1,2011-09-09T14:00:00Z,26.4966,-82.1479,2.39,31.91,1111122 
SCCF RECON,ioos:station:SCCF:12:1,2011-09-09T15:00:00Z,26.4966,-82.1479,2.458,31.88,1111122 
SCCF RECON,ioos:station:SCCF:12:1,2011-09-09T16:00:00Z,26.4966,-82.1479,2.485,31.84,1111122 
SCCF RECON,ioos:station:SCCF:12:1,2011-09-09T17:00:00Z,26.4966,-82.1479,2.447,31.88,1111122 
SCCF RECON,ioos:station:SCCF:12:1,2011-09-09T18:00:00Z,26.4966,-82.1479,2.36,31.13,1111122 
SCCF RECON,ioos:station:SCCF:12:1,2011-09-09T19:00:00Z,26.4966,-82.1479,2.23,31.24,1111122 
SCCF RECON,ioos:station:SCCF:12:1,2011-09-09T20:00:00Z,26.4966,-82.1479,2.1,31.26,1111122 
SCCF RECON,ioos:station:SCCF:12:1,2011-09-09T21:00:00Z,26.4966,-82.1479,1.998,31.09,1111122 
SCCF RECON,ioos:station:SCCF:12:1,2011-09-09T22:00:00Z,26.4966,-82.1479,1.95,31.02,1111122 
SCCF RECON,ioos:station:SCCF:12:1,2011-09-09T23:00:00Z,26.4966,-82.1479,1.87,31.45,1111122 
SCCF RECON,ioos:station:SCCF:12:1,2011-09-10T00:00:00Z,26.4966,-82.1479,1.851,31.27,1111122 
SCCF RECON,ioos:station:SCCF:12:1,2011-09-10T01:00:00Z,26.4966,-82.1479,1.932,31.43,1111122 
SCCF RECON,ioos:station:SCCF:12:1,2011-09-10T02:00:00Z,26.4966,-82.1479,2.069,31.25,1111122 
SCCF RECON,ioos:station:SCCF:12:1,2011-09-10T03:00:00Z,26.4966,-82.1479,2.21,31.22,1111122 
SCCF RECON,ioos:station:SCCF:12:1,2011-09-10T04:00:00Z,26.4966,-82.1479,2.31,31.28,1111122 
SCCF RECON,ioos:station:SCCF:12:1,2011-09-10T05:00:00Z,26.4966,-82.1479,2.35,31.17,1111122 
SCCF RECON,ioos:station:SCCF:12:1,2011-09-10T06:00:00Z,26.4966,-82.1479,2.32,30.97,1111122 
SCCF RECON,ioos:station:SCCF:12:1,2011-09-10T07:00:00Z,26.4966,-82.1479,2.232,31.12,1111122 
SCCF RECON,ioos:station:SCCF:12:1,2011-09-10T08:00:00Z,26.4966,-82.1479,2.119,31.05,1111122 
SCCF RECON,ioos:station:SCCF:12:1,2011-09-10T09:00:00Z,26.4966,-82.1479,2.02,30.81,1111122 
SCCF RECON,ioos:station:SCCF:12:1,2011-09-10T10:00:00Z,26.4966,-82.1479,1.97,30.62,1111122 
SCCF RECON,ioos:station:SCCF:12:1,2011-09-10T11:00:00Z,26.4966,-82.1479,1.97,30.83,1111122 
SCCF RECON,ioos:station:SCCF:12:1,2011-09-10T12:00:00Z,26.4966,-82.1479,2.058,30.81,1111122 
SCCF RECON,ioos:station:SCCF:12:1,2011-09-10T13:00:00Z,26.4966,-82.1479,2.209,30.71,1111122 
SCCF RECON,ioos:station:SCCF:12:1,2011-09-10T14:00:00Z,26.4966,-82.1479,2.359,30.85,1111122 
SCCF RECON,ioos:station:SCCF:12:1,2011-09-10T15:00:00Z,26.4966,-82.1479,2.456,31.14,1111122 
SCCF RECON,ioos:station:SCCF:12:1,2011-09-10T16:00:00Z,26.4966,-82.1479,2.505,31.05,1111122 
SCCF RECON,ioos:station:SCCF:12:1,2011-09-10T17:00:00Z,26.4966,-82.1479,2.499,30.86,1111122 
SCCF RECON,ioos:station:SCCF:12:1,2011-09-10T18:00:00Z,26.4966,-82.1479,2.44,30.85,1111122 
SCCF RECON,ioos:station:SCCF:12:1,2011-09-10T19:00:00Z,26.4966,-82.1479,2.33,30.66,1111122 
SCCF RECON,ioos:station:SCCF:12:1,2011-09-10T20:00:00Z,26.4966,-82.1479,2.2,30.72,1111122 
SCCF RECON,ioos:station:SCCF:12:1,2011-09-10T21:00:00Z,26.4966,-82.1479,2.069,30.37,1111122 
SCCF RECON,ioos:station:SCCF:12:1,2011-09-10T22:00:00Z,26.4966,-82.1479,1.95,30.54,1111122 
SCCF RECON,ioos:station:SCCF:12:1,2011-09-10T23:00:00Z,26.4966,-82.1479,1.86,30.54,1111122 
SCCF RECON,ioos:station:SCCF:12:1,2011-09-11T00:00:00Z,26.4966,-82.1479,1.83,30.65,1111122 
SCCF RECON,ioos:station:SCCF:12:1,2011-09-11T01:00:00Z,26.4966,-82.1479,1.925,30.61,1111122 
SCCF RECON,ioos:station:SCCF:12:1,2011-09-11T02:00:00Z,26.4966,-82.1479,2.09,30.69,1111122 
SCCF RECON,ioos:station:SCCF:12:1,2011-09-11T03:00:00Z,26.4966,-82.1479,2.237,30.72,1111122 
SCCF RECON,ioos:station:SCCF:12:1,2011-09-11T04:00:00Z,26.4966,-82.1479,2.32,30.7,1111122 
SCCF RECON,ioos:station:SCCF:12:1,2011-09-11T05:00:00Z,26.4966,-82.1479,2.37,30.68,1111122 
SCCF RECON,ioos:station:SCCF:12:1,2011-09-11T06:00:00Z,26.4966,-82.1479,2.36,30.25,1111122 
SCCF RECON,ioos:station:SCCF:12:1,2011-09-11T07:00:00Z,26.4966,-82.1479,2.3,30.43,1111122 
SCCF RECON,ioos:station:SCCF:12:1,2011-09-11T08:00:00Z,26.4966,-82.1479,2.19,30.59,1111122 
SCCF RECON,ioos:station:SCCF:12:1,2011-09-11T09:00:00Z,26.4966,-82.1479,2.08,30.3,1111122 
SCCF RECON,ioos:station:SCCF:12:1,2011-09-11T10:00:00Z,26.4966,-82.1479,2.01,30.0,1111122 
SCCF RECON,ioos:station:SCCF:12:1,2011-09-11T11:00:00Z,26.4966,-82.1479,1.96,29.67,1111122 
SCCF RECON,ioos:station:SCCF:12:1,2011-09-11T12:00:00Z,26.4966,-82.1479,1.956,29.6,1111122 
SCCF RECON,ioos:station:SCCF:12:1,2011-09-11T13:00:00Z,26.4966,-82.1479,2.046,29.94,1111122 
SCCF RECON,ioos:station:SCCF:12:1,2011-09-11T14:00:00Z,26.4966,-82.1479,2.22,30.0,1111122 
SCCF RECON,ioos:station:SCCF:12:1,2011-09-11T15:00:00Z,26.4966,-82.1479,2.384,30.16,1111122 
SCCF RECON,ioos:station:SCCF:12:1,2011-09-11T16:00:00Z,26.4966,-82.1479,2.483,30.12,1111122 
SCCF RECON,ioos:station:SCCF:12:1,2011-09-11T17:00:00Z,26.4966,-82.1479,2.53,30.12,1111122 
SCCF RECON,ioos:station:SCCF:12:1,2011-09-11T18:00:00Z,26.4966,-82.1479,2.508,29.93,1111122 